Regional Weather Roundup
Issued by NWS Sterling, VA

Home | Current Version | Previous Version | Text Only | Print | Product List | Glossary Off
Versions: 1 2 3 4 5 6 7 8 9 10 11 12 13 14 15 16 17 18 19 20 21 22 23 24 25 26 27

000
ASUS41 KLWX 190510
RWRLWX

REGIONAL WEATHER ROUNDUP
NATIONAL WEATHER SERVICE BALTIMORE MD/WASHINGTON DC
1200 AM EST THU JAN 19 2017

Note: "FAIR" indicates few or no clouds below 12,000 feet
with no significant weather and/or obstructions to visibility.
 TC=TEMPERATURE CELSIUS

 * =Non NWS site. Station does not report precipitation (e.g. rain,
    snow, etc.), thunder, or fog.

DCZ001-MDZ009-015-VAZ040>042-051-053>054-190600-
WASHINGTON METRO

CITY           SKY/WX    TMP DP  RH WIND       PRES   REMARKS
WASHINGTON NAT MOCLDY    48  36  63 NW9       30.09R
DULLES         PTCLDY    42  34  73 W5        30.09R
ANDREWS AFB    CLOUDY    46  35  65 NW9       30.07R
FT BELVOIR     CLOUDY    44  34  67 W5        30.09R
QUANTICO       PTCLDY    45  36  70 N9        30.10R
COLLEGE PARK*  CLOUDY    45  34  65 W6        30.08R
LEESBURG*      PTCLDY    43  37  81 MISG      30.10R
GAITHERSBURG*  CLOUDY    39  30  70 W3        30.12R

$$

MDZ006>007-011-014-190600-
BALTIMORE METRO

CITY           SKY/WX    TMP DP  RH WIND       PRES   REMARKS
BWI AIRPORT    CLOUDY    46  37  71 W10       30.07R
MD SCIENCE CTR   N/A     48  35  60 MISG      30.07S
ANNAPOLIS      CLOUDY    48  36  63 NW6       30.06S
FORT MEADE*    CLOUDY    45  36  70 W6        30.10R

$$

MDZ012-015-019>023-190600-
MARYLAND EASTERN SHORE

CITY           SKY/WX    TMP DP  RH WIND       PRES   REMARKS
OCEAN CITY     NOT AVBL
SALISBURY      CLOUDY    47  41  80 N5        30.03F
BAY BRIDGE AP* CLOUDY    46  37  71 NW7       30.07R
CAMBRIDGE*     CLOUDY    45  37  76 CALM      30.05S
EASTON*        CLOUDY    48  37  66 N3        30.08F

$$

MDZ017>025-190600-
SOUTHERN MARYLAND

CITY           SKY/WX    TMP DP  RH WIND       PRES   REMARKS
PATUXENT RIVER CLOUDY    46  38  73 NW3       30.06S
ST INIGOES     CLEAR     47  36  65 VRB3      30.05S
LEONARDTOWN*   CLOUDY    46  36  66 NW5       30.08R

$$

MDZ003>005-190600-
NORTH CENTRAL MARYLAND

CITY           SKY/WX    TMP DP  RH WIND       PRES   REMARKS
FREDERICK*     CLOUDY    37  37 100 CALM      30.12R
HAGERSTOWN APT CLOUDY    43  34  70 CALM      30.08R
WESTMINSTER*   CLOUDY    41  36  81 W9        30.06R

$$

MDZ501>502-190600-
WESTERN MARYLAND

CITY           SKY/WX    TMP DP  RH WIND       PRES   REMARKS
OAKLAND*       FOG       32  32 100 W12G20    30.02F VSB 1/4 WCI  23
CUMBERLAND*    CLOUDY    43  34  70 W5        30.12F

$$

VAZ025>031-190600-
SHENANDOAH VALLEY

CITY           SKY/WX    TMP DP  RH WIND       PRES   REMARKS
WINCHESTER*    CLOUDY    41  34  75 NW6       30.08F
FRONT ROYAL*   CLOUDY    43  36  75 CALM      30.07F
LURAY*         PTCLDY    36  36 100 CALM      30.07F
NEW MARKET*    PTCLDY    33  31  94 CALM      30.07F
STAUNTON*      PTCLDY    30  29  94 CALM      30.10F
WAYNESBORO*    PTCLDY    39  33  80 SW3       30.08F

$$

WVZ021-048>050-054>055-190600-
EASTERN WEST VIRGINIA PANHANDLE

CITY           SKY/WX    TMP DP  RH WIND       PRES   REMARKS
MARTINSBURG    CLOUDY    44  34  67 NW5       30.08R
PETERSBURG*    CLOUDY    33  32  96 CALM      30.10S

$$

VAZ036>039-050-190600-
CENTRAL FOOTHILLS

CITY           SKY/WX    TMP DP  RH WIND       PRES   REMARKS
CHARLOTTESVILL CLOUDY    43  35  73 CALM      30.08S
CULPEPER*      CLOUDY    36  34  90 CALM      30.10S
ORANGE*          N/A     36  36 100 CALM      30.11S
GORDONSVILLE*  CLOUDY    35  34  96 CALM      30.08F
WARRENTON*     CLOUDY    42  32  68 N5        30.09R

$$

VAZ055>057-190600-
NORTH AND CENTRAL PIEDMONT

CITY           SKY/WX    TMP DP  RH WIND       PRES   REMARKS
FREDERICKSBRG* CLEAR     43  37  78 NW6       30.09R
STAFFORD*      CLEAR     40  35  81 N6        30.13R

$$

NCZ024-NYZ072-PAZ021-071-VAZ022-071-190600-
OTHER REGIONAL OBSERVATIONS

CITY           SKY/WX    TMP DP  RH WIND       PRES   REMARKS
NEW YORK CITY  CLOUDY    40  36  86 CALM      30.03F
PHILADELPHIA   CLOUDY    45  38  76 NW3       30.04S
PITTSBURGH     DRIZZLE   38  37  97 W6        30.09F
ROANOKE        CLOUDY    42  36  79 NW6       30.12S
RICHMOND       CLOUDY    43  36  76 N5        30.07R
RALEIGH        CLOUDY    47  35  63 CALM      30.07R

$$

ANZ530>537-190600-
MARINE OBSERVATIONS

STATION/POSITION TIME  TEMP    WIND        PRES
                       AIR SEA DIR/SP/G
                 (UTC) (F)     (DEG/KT/KT) (MB)
THOMAS PT LIGHT  0500   47 39  290/ 11/ 12   N/A
BALT KEY BRIDGE  0448   46     280/  8/  9 1018.0F
COVE POINT       0448   44     350/ 11/ 12 1018.4S
LEWISETTA        0448   45 44  340/  6/  8 1017.5F
SOLOMONS ISLAND  0448   47 42  320/  5/  6   N/A
PINEY POINT      0448          340/  8/  8   N/A

$$





USA.gov is the U.S. government's official web portal to all federal, state and local government web resources and services.